Voltar ao catálogo

DELTA 1 DEB

AtivoSSO
NORAD 37646·DEBRIS·🇺🇸 United States

Lançado Mar 5, 1978 de Vandenberg Space Force Base

Loading…

Próximas Passagens (próximas 24 horas)

TLE

AtualizadoSource: Space-Track

Época: Sep 13, 2026, 03:12 UTC

1 37646U 78026JH  26256.13388981  .00000941  00000-0  49172-3 0  9991
2 37646  99.1247 322.4473 0081318 299.8504  59.4605 14.15305925621275

Acompanhe DELTA 1 DEB em tempo real com AllMySat

Download on the App Store